Torna al catalogo

STARLINK-5845

AttivoComunicazioniVLEO
NORAD 57050·PAYLOAD·🇺🇸 United States

Lanciato Jun 22, 2023 da Vandenberg Space Force Base

Loading…

Prossimi Passaggi (prossime 24 ore)

TLE

AggiornatoSource: CelesTrak SupGP

Epoca: Sep 14, 2026, 20:49 UTC

1 57050C 23088C   26257.86784722 -.00017461  00000+0 -63253-3 0  2573
2 57050  43.0003 122.1686 0001183 233.6839 211.8158 15.27581507    10

Traccia STARLINK-5845 in tempo reale con AllMySat

Download on the App Store